| time (UTC) | temp C | wind direction | speed KPH | gust KPH | rain 1hr cm | rain 24hr cm | rain mn cm | humidity % | barometer mb |
| 20260506113928 | 6 | 282 | 1.6 | 8.0 | 0.00 | 2.46 | 1.07 | 94 | 1009.6 |
| 20260506113648 | 6 | 282 | 1.6 | 8.0 | 0.00 | 2.46 | 1.07 | 94 | 1009.3 |
| 20260506113102 | 6 | 282 | 0.0 | 6.4 | 0.00 | 2.49 | 1.07 | 95 | 1009.3 |
| 20260506112922 | 6 | 282 | 1.6 | 8.0 | 0.00 | 2.49 | 1.07 | 95 | 1009.4 |
| 20260506112420 | 6 | 282 | 1.6 | 8.0 | 0.00 | 2.49 | 1.07 | 95 | 1009.3 |
| 20260506111922 | 6 | 282 | 1.6 | 8.0 | 0.00 | 2.49 | 1.07 | 95 | 1009.2 |
| 20260506111529 | 6 | 278 | 1.6 | 6.4 | 0.00 | 2.49 | 1.07 | 95 | 1009.1 |
| 20260506111358 | 6 | 282 | 0.0 | 6.4 | 0.00 | 2.49 | 1.07 | 95 | 1009.2 |
| 20260506110900 | 6 | 282 | 1.6 | 6.4 | 0.00 | 2.49 | 1.07 | 95 | 1009.2 |
| 20260506110346 | 6 | 288 | 1.6 | 6.4 | 0.00 | 2.49 | 1.07 | 95 | 1009.3 |
| 20260506110104 | 6 | 288 | 1.6 | 6.4 | 0.00 | 2.49 | 1.07 | 95 | 1009.4 |
| 20260506105812 | 6 | 282 | 1.6 | 6.4 | 0.00 | 2.49 | 1.07 | 95 | 1009.4 |
| 20260506105248 | 6 | 282 | 0.0 | 4.8 | 0.00 | 2.49 | 1.07 | 95 | 1009.1 |
| 20260506104743 | 6 | 282 | 0.0 | 4.8 | 0.00 | 2.49 | 1.07 | 95 | 1008.5 |
| 20260506104708 | 6 | 288 | 0.0 | 3.2 | 0.00 | 2.49 | 1.07 | 95 | 1008.5 |
| 20260506104517 | 6 | 282 | 0.0 | 4.8 | 0.00 | 2.67 | 1.07 | 95 | 1008.6 |
| 20260506103659 | 6 | 287 | 0.0 | 3.2 | 0.00 | 2.49 | 1.07 | 95 | 1008.7 |
| 20260506103139 | 6 | 288 | 0.0 | 4.8 | 0.00 | 2.49 | 1.07 | 95 | 1009.0 |
| 20260506103022 | 6 | 288 | 0.0 | 4.8 | 0.00 | 2.67 | 1.07 | 95 | 1009.0 |
| 20260506102622 | 6 | 287 | 0.0 | 4.8 | 0.00 | 2.49 | 1.07 | 95 | 1009.1 |
| 20260506102102 | 6 | 289 | 0.0 | 4.8 | 0.00 | 2.51 | 1.07 | 95 | 1009.1 |
| 20260506101559 | 6 | 289 | 0.0 | 4.8 | 0.00 | 2.54 | 1.07 | 95 | 1008.6 |
| 20260506101529 | 6 | 289 | 0.0 | 3.2 | 0.00 | 2.67 | 1.07 | 95 | 1008.6 |
| 20260506101253 | 6 | 289 | 0.0 | 4.8 | 0.00 | 2.59 | 1.07 | 95 | 1008.3 |
| 20260506100529 | 6 | 289 | 0.0 | 6.4 | 0.00 | 2.64 | 1.07 | 95 | 1007.9 |
| 20260506100040 | 6 | 288 | 0.0 | 6.4 | 0.00 | 2.67 | 1.07 | 95 | 1008.0 |
| 20260506100031 | 6 | 289 | 0.0 | 6.4 | 0.00 | 2.67 | 1.07 | 95 | 1008.0 |
| 20260506095530 | 6 | 282 | 0.0 | 1.6 | 0.00 | 2.72 | 1.07 | 95 | 1008.1 |
| 20260506095029 | 6 | 282 | 0.0 | 1.6 | 0.00 | 2.72 | 1.07 | 95 | 1008.2 |
| 20260506094608 | 6 | 282 | 0.0 | 1.6 | 0.00 | 2.79 | 1.07 | 95 | 1008.2 |
| 20260506094529 | 6 | 282 | 0.0 | 1.6 | 0.00 | 2.74 | 1.07 | 95 | 1008.2 |
| 20260506094026 | 6 | 282 | 0.0 | 1.6 | 0.00 | 2.74 | 1.07 | 95 | 1008.1 |
| 20260506093526 | 6 | 282 | 0.0 | 1.6 | 0.00 | 2.77 | 1.07 | 95 | 1008.1 |
| 20260506093018 | 6 | 282 | 0.0 | 6.4 | 0.00 | 2.79 | 1.07 | 95 | 1008.0 |
| 20260506092959 | 6 | 282 | 0.0 | 6.4 | 0.00 | 2.77 | 1.07 | 95 | 1008.1 |
| 20260506092947 | 6 | 282 | 0.0 | 6.4 | 0.00 | 2.77 | 1.07 | 95 | 1008.1 |
| 20260506092220 | 6 | 282 | 0.0 | 4.8 | 0.00 | 2.79 | 1.07 | 95 | 1007.8 |
| 20260506091540 | 6 | 282 | 0.0 | 3.2 | 0.00 | 2.79 | 1.07 | 95 | 1007.6 |
| 20260506091455 | 6 | 282 | 0.0 | 4.8 | 0.00 | 2.79 | 1.07 | 95 | 1007.6 |
| 20260506090954 | 6 | 282 | 0.0 | 6.4 | 0.00 | 2.79 | 1.07 | 95 | 1007.5 |
| 20260506090428 | 6 | 282 | 1.6 | 6.4 | 0.00 | 2.79 | 1.07 | 95 | 1007.5 |
| 20260506090104 | 6 | 282 | 0.0 | 6.4 | 0.00 | 2.79 | 1.07 | 95 | 1007.3 |
| 20260506085908 | 6 | 282 | 1.6 | 8.0 | 0.00 | 2.79 | 1.07 | 95 | 1007.2 |
| 20260506085408 | 6 | 283 | 3.2 | 8.0 | 0.03 | 2.79 | 1.07 | 95 | 1007.3 |
| 20260506084906 | 6 | 282 | 3.2 | 11.3 | 0.03 | 2.79 | 1.07 | 95 | 1007.5 |
| 20260506084630 | 6 | 282 | 3.2 | 9.7 | 0.03 | 2.79 | 1.07 | 95 | 1007.5 |
| 20260506084408 | 6 | 282 | 1.6 | 11.3 | 0.05 | 2.79 | 1.07 | 95 | 1007.7 |
| 20260506083905 | 6 | 278 | 0.0 | 4.8 | 0.05 | 2.79 | 1.07 | 95 | 1007.7 |
| 20260506083402 | 6 | 278 | 1.6 | 6.4 | 0.08 | 2.79 | 1.07 | 95 | 1007.8 |
| 20260506083058 | 6 | 289 | 0.0 | 6.4 | 0.10 | 2.79 | 1.07 | 95 | 1007.6 |
| 20260506083031 | 6 | 289 | 0.0 | 6.4 | 0.10 | 2.79 | 1.07 | 95 | 1007.7 |
| 20260506082333 | 6 | 282 | 0.0 | 4.8 | 0.10 | 2.79 | 1.07 | 95 | 1007.5 |
| 20260506081811 | 6 | 282 | 1.6 | 6.4 | 0.13 | 2.79 | 1.07 | 94 | 1007.4 |
| 20260506081544 | 6 | 282 | 0.0 | 6.4 | 0.13 | 2.79 | 1.07 | 94 | 1007.3 |
| 20260506081513 | 6 | 282 | 1.6 | 8.0 | 0.13 | 2.79 | 1.07 | 94 | 1007.2 |
| 20260506080714 | 7 | 282 | 1.6 | 8.0 | 0.15 | 2.79 | 1.07 | 94 | 1007.3 |
| 20260506080212 | 7 | 282 | 3.2 | 14.5 | 0.18 | 2.79 | 1.07 | 94 | 1007.3 |
| 20260506073331 | 8 | 287 | 3.2 | 12.9 | 0.18 | 2.69 | 0.97 | 95 | 1007.3 |
| 20260506073102 | 8 | 287 | 1.6 | 12.9 | 0.18 | 2.69 | 0.97 | 95 | 1007.2 |
| 20260506072602 | 8 | 285 | 1.6 | 8.0 | 0.18 | 2.69 | 0.97 | 95 | 1007.3 |
| 20260506072051 | 8 | 288 | 3.2 | 8.0 | 0.15 | 2.67 | 0.97 | 95 | 1007.2 |
| 20260506071811 | 8 | 282 | 3.2 | 16.1 | 0.15 | 2.67 | 0.94 | 95 | 1007.1 |
| 20260506071529 | 8 | 282 | 1.6 | 16.1 | 0.15 | 2.67 | 0.94 | 95 | 1007.0 |
| 20260506071041 | 8 | 282 | 3.2 | 16.1 | 0.18 | 2.67 | 0.94 | 95 | 1007.1 |
| 20260506070538 | 8 | 288 | 3.2 | 11.3 | 0.18 | 2.64 | 0.91 | 95 | 1006.9 |
| 20260506062415 | 8 | 289 | 3.2 | 17.7 | 0.15 | 2.51 | 0.79 | 95 | 1006.6 |
| 20260506061913 | 8 | 289 | 4.8 | 19.3 | 0.18 | 2.51 | 0.79 | 95 | 1006.3 |
| 20260506061536 | 8 | 282 | 1.6 | 19.3 | 0.20 | 2.51 | 0.79 | 95 | 1006.0 |
| 20260506061408 | 8 | 282 | 6.4 | 20.9 | 0.20 | 2.51 | 0.79 | 95 | 1006.1 |
| 20260506060907 | 8 | 282 | 6.4 | 20.9 | 0.23 | 2.49 | 0.76 | 95 | 1006.1 |
| 20260506060559 | 8 | 282 | 4.8 | 19.3 | 0.25 | 2.46 | 0.74 | 95 | 1006.2 |
| 20260506051048 | 10 | 282 | 3.2 | 12.9 | 0.43 | 2.29 | 0.56 | 95 | 1006.4 |
| 20260506050519 | 10 | 283 | 3.2 | 11.3 | 0.43 | 2.21 | 0.48 | 95 | 1006.5 |
| 20260506050211 | 10 | 282 | 4.8 | 14.5 | 0.46 | 2.18 | 0.46 | 95 | 1006.0 |
| 20260506044943 | 10 | 282 | 4.8 | 20.9 | 0.43 | 2.11 | 0.38 | 95 | 1006.1 |
| 20260506044522 | 10 | 282 | 1.6 | 20.9 | 0.36 | 2.03 | 0.30 | 95 | 1005.8 |
| 20260506044443 | 10 | 278 | 6.4 | 20.9 | 0.33 | 2.01 | 0.30 | 95 | 1006.3 |
| 20260506043916 | 10 | 282 | 6.4 | 17.7 | 0.36 | 2.01 | 0.28 | 95 | 1006.0 |
| 20260506043411 | 10 | 282 | 4.8 | 19.3 | 0.36 | 2.01 | 0.28 | 95 | 1005.8 |
| 20260506043101 | 10 | 282 | 4.8 | 20.9 | 0.33 | 1.98 | 0.25 | 94 | 1005.7 |
| 20260506042910 | 11 | 282 | 4.8 | 20.9 | 0.33 | 1.98 | 0.25 | 94 | 1006.1 |
| 20260506042343 | 11 | 288 | 3.2 | 14.5 | 0.30 | 1.96 | 0.23 | 94 | 1006.4 |
| 20260506042034 | 11 | 282 | 3.2 | 9.7 | 0.28 | 1.93 | 0.20 | 94 | 1006.2 |
| 20260506041609 | 11 | 282 | 1.6 | 9.7 | 0.28 | 1.93 | 0.20 | 94 | 1005.7 |
| 20260506041312 | 11 | 286 | 3.2 | 11.3 | 0.23 | 1.88 | 0.18 | 94 | 1006.3 |
| 20260506040741 | 12 | 288 | 1.6 | 11.3 | 0.15 | 1.80 | 0.08 | 94 | 1006.2 |
| 20260506040242 | 12 | 288 | 1.6 | 4.8 | 0.10 | 1.75 | 0.03 | 94 | 1005.9 |
| 20260506040100 | 12 | 288 | 1.6 | 4.8 | 0.08 | 1.73 | 0.00 | 94 | 1005.4 |
| 20260506035712 | 12 | 290 | 1.6 | 6.4 | 0.10 | 1.73 | 1.73 | 94 | 1005.7 |
| 20260506035214 | 13 | 273 | 1.6 | 6.4 | 0.08 | 1.70 | 1.70 | 93 | 1005.6 |
| 20260506034650 | 14 | 273 | 1.6 | 4.8 | 0.08 | 1.68 | 1.68 | 93 | 1005.7 |
| 20260506034506 | 14 | 290 | 1.6 | 4.8 | 0.08 | 1.68 | 1.68 | 94 | 1005.4 |
| 20260506034145 | 15 | 286 | 0.0 | 3.2 | 0.08 | 1.65 | 1.65 | 96 | 1005.8 |
| 20260506033910 | 15 | 286 | 0.0 | 4.8 | 0.08 | 1.65 | 1.65 | 96 | 1005.8 |
| 20260506033356 | 15 | 286 | 0.0 | 6.4 | 0.10 | 1.65 | 1.65 | 95 | 1005.7 |
| 20260506033048 | 15 | 286 | 1.6 | 6.4 | 0.13 | 1.65 | 1.65 | 95 | 1005.7 |
| 20260506033017 | 15 | 286 | 0.0 | 6.4 | 0.10 | 1.65 | 1.65 | 95 | 1005.3 |
| 20260506032045 | 15 | 286 | 1.6 | 6.4 | 0.15 | 1.65 | 1.65 | 96 | 1005.8 |
| 20260506031536 | 15 | 286 | 1.6 | 6.4 | 0.15 | 1.65 | 1.65 | 95 | 1005.4 |
| 20260506031518 | 15 | 286 | 0.0 | 6.4 | 0.15 | 1.65 | 1.65 | 95 | 1005.8 |
| 20260506031020 | 15 | 286 | 0.0 | 4.8 | 0.15 | 1.65 | 1.65 | 95 | 1006.0 |
| 20260506030453 | 15 | 286 | 0.0 | 4.8 | 0.18 | 1.65 | 1.65 | 96 | 1006.0 |
| 20260506030056 | 15 | 286 | 0.0 | 4.8 | 0.18 | 1.65 | 1.65 | 95 | 1005.6 |
| 20260506025927 | 15 | 286 | 0.0 | 4.8 | 0.18 | 1.63 | 1.63 | 95 | 1006.1 |
| 20260506025645 | 15 | 286 | 1.6 | 8.0 | 0.20 | 1.63 | 1.63 | 95 | 1006.1 |
| 20260506024907 | 15 | 286 | 1.6 | 8.0 | 0.20 | 1.60 | 1.60 | 95 | 1006.2 |
| 20260506024608 | 15 | 286 | 1.6 | 8.0 | 0.23 | 1.60 | 1.60 | 95 | 1005.9 |
| 20260506024407 | 15 | 287 | 1.6 | 4.8 | 0.23 | 1.60 | 1.60 | 95 | 1006.3 |
| 20260506024112 | 15 | 288 | 1.6 | 8.0 | 0.20 | 1.57 | 1.57 | 95 | 1006.6 |
| 20260506023549 | 15 | 289 | 0.0 | 6.4 | 0.18 | 1.55 | 1.55 | 95 | 1006.7 |
| 20260506023108 | 15 | 291 | 0.0 | 3.2 | 0.18 | 1.55 | 1.55 | 95 | 1006.3 |
| 20260506023023 | 15 | 291 | 0.0 | 3.2 | 0.18 | 1.55 | 1.55 | 95 | 1006.9 |
| 20260506022243 | 15 | 273 | 1.6 | 4.8 | 0.15 | 1.52 | 1.52 | 95 | 1006.9 |
| 20260506021748 | 15 | 290 | 1.6 | 6.4 | 0.13 | 1.50 | 1.50 | 95 | 1006.9 |
| 20260506021606 | 15 | 291 | 0.0 | 6.4 | 0.13 | 1.50 | 1.50 | 95 | 1006.5 |
| 20260506021226 | 15 | 273 | 1.6 | 6.4 | 0.15 | 1.50 | 1.50 | 95 | 1006.9 |
| 20260506020729 | 15 | 273 | 1.6 | 6.4 | 0.18 | 1.50 | 1.50 | 95 | 1006.8 |
| 20260506020442 | 15 | 290 | 1.6 | 6.4 | 0.20 | 1.47 | 1.47 | 95 | 1006.7 |
| 20260506020104 | 15 | 290 | 0.0 | 8.0 | 0.20 | 1.45 | 1.45 | 95 | 1006.3 |
| 20260506015724 | 15 | 289 | 1.6 | 8.0 | 0.23 | 1.45 | 1.45 | 95 | 1006.8 |
| 20260506015225 | 15 | 290 | 1.6 | 8.0 | 0.20 | 1.40 | 1.40 | 95 | 1006.9 |
| 20260506014721 | 15 | 290 | 1.6 | 4.8 | 0.20 | 1.37 | 1.37 | 95 | 1006.8 |
| 20260506014559 | 15 | 290 | 0.0 | 4.8 | 0.20 | 1.37 | 1.37 | 95 | 1006.4 |
| 20260506014159 | 15 | 289 | 0.0 | 4.8 | 0.23 | 1.37 | 1.37 | 95 | 1006.8 |
| 20260506013638 | 15 | 289 | 0.0 | 3.2 | 0.23 | 1.37 | 1.37 | 95 | 1006.6 |
| 20260506013400 | 15 | 290 | 0.0 | 1.6 | 0.23 | 1.37 | 1.37 | 95 | 1006.6 |
| 20260506013014 | 15 | 273 | 0.0 | 1.6 | 0.23 | 1.37 | 1.37 | 95 | 1006.1 |
| 20260506012622 | 15 | 291 | 0.0 | 1.6 | 0.23 | 1.37 | 1.37 | 95 | 1006.5 |
| 20260506012103 | 15 | 290 | 0.0 | 0.0 | 0.25 | 1.37 | 1.37 | 95 | 1006.5 |
| 20260506011605 | 15 | 273 | 0.0 | 3.2 | 0.23 | 1.35 | 1.37 | 95 | 1006.5 |
| 20260506011521 | 15 | 290 | 0.0 | 0.0 | 0.23 | 1.35 | 1.35 | 95 | 1006.0 |
| 20260506011106 | 15 | 273 | 0.0 | 3.2 | 0.23 | 1.35 | 1.35 | 95 | 1006.5 |
| 20260506010539 | 15 | 290 | 0.0 | 4.8 | 0.20 | 1.30 | 1.30 | 95 | 1006.7 |
| 20260506010019 | 15 | 290 | 1.6 | 3.2 | 0.15 | 1.24 | 1.27 | 95 | 1006.7 |
| 20260506010005 | 15 | 291 | 0.0 | 4.8 | 0.18 | 1.27 | 1.27 | 95 | 1006.2 |
| 20260506005513 | 15 | 291 | 1.6 | 4.8 | 0.13 | 1.22 | 1.22 | 95 | 1006.7 |
| 20260506005011 | 15 | 291 | 1.6 | 4.8 | 0.10 | 1.19 | 1.19 | 95 | 1006.7 |
| 20260506004737 | 15 | 291 | 1.6 | 8.0 | 0.10 | 1.17 | 1.17 | 95 | 1006.5 |
| 20260506004559 | 15 | 292 | 1.6 | 8.0 | 0.10 | 1.17 | 1.17 | 95 | 1006.0 |
| 20260506004011 | 16 | 294 | 0.0 | 8.0 | 0.08 | 1.14 | 1.14 | 95 | 1006.3 |
| 20260506003444 | 16 | 291 | 1.6 | 3.2 | 0.08 | 1.14 | 1.14 | 94 | 1006.3 |
| 20260506003015 | 15 | 273 | 0.0 | 3.2 | 0.08 | 1.14 | 1.14 | 94 | 1005.7 |
| 20260506002940 | 15 | 291 | 0.0 | 3.2 | 0.08 | 1.14 | 1.14 | 94 | 1006.4 |
| 20260506002435 | 16 | 291 | 0.0 | 1.6 | 0.10 | 1.14 | 1.14 | 94 | 1006.2 |
| 20260506001916 | 16 | 290 | 0.0 | 3.2 | 0.08 | 1.12 | 1.12 | 94 | 1006.2 |
| 20260506001637 | 16 | 291 | 0.0 | 3.2 | 0.08 | 1.12 | 1.12 | 94 | 1006.1 |
| 20260506001609 | 15 | 290 | 0.0 | 1.6 | 0.08 | 1.12 | 1.12 | 94 | 1005.6 |
| 20260506000851 | 16 | 290 | 1.6 | 8.0 | 0.08 | 1.12 | 1.12 | 94 | 1005.9 |
| 20260506000605 | 16 | 290 | 1.6 | 8.0 | 0.05 | 1.09 | 1.09 | 94 | 1006.0 |
| 20260506000008 | 15 | 289 | 1.6 | 8.0 | 0.05 | 1.09 | 1.09 | 94 | 1005.5 |
| 20260505235842 | 16 | 288 | 3.2 | 8.0 | 0.05 | 1.09 | 1.09 | 94 | 1006.0 |
| 20260505235338 | 16 | 289 | 3.2 | 8.0 | 0.05 | 1.09 | 1.09 | 94 | 1006.1 |
| 20260505234838 | 16 | 290 | 3.2 | 9.7 | 0.03 | 1.07 | 1.07 | 94 | 1006.0 |
| 20260505234547 | 15 | 273 | 1.6 | 9.7 | 0.03 | 1.07 | 1.07 | 94 | 1005.6 |
| 20260505234309 | 16 | 273 | 3.2 | 9.7 | 0.03 | 1.07 | 1.07 | 94 | 1006.2 |
| 20260505233808 | 16 | 273 | 3.2 | 9.7 | 0.03 | 1.07 | 1.07 | 94 | 1006.3 |
| 20260505233245 | 16 | 290 | 3.2 | 9.7 | 0.03 | 1.07 | 1.07 | 94 | 1006.3 |
| 20260505233025 | 15 | 288 | 1.6 | 6.4 | 0.03 | 1.07 | 1.07 | 94 | 1005.8 |
| 20260505232732 | 16 | 286 | 3.2 | 11.3 | 0.00 | 1.04 | 1.04 | 94 | 1006.4 |
| 20260505232458 | 16 | 286 | 3.2 | 12.9 | 0.00 | 1.04 | 1.04 | 94 | 1006.4 |
| 20260505231734 | 16 | 287 | 3.2 | 6.4 | 0.00 | 1.04 | 1.04 | 94 | 1006.4 |
| 20260505231555 | 16 | 287 | 1.6 | 6.4 | 0.00 | 1.04 | 1.04 | 94 | 1005.8 |
| 20260505231435 | 16 | 288 | 3.2 | 11.3 | 0.03 | 1.04 | 1.04 | 94 | 1006.3 |
| 20260505230702 | 16 | 288 | 4.8 | 11.3 | 0.03 | 1.04 | 1.04 | 94 | 1006.4 |
| 20260505230200 | 16 | 290 | 6.4 | 19.3 | 0.03 | 1.04 | 1.04 | 94 | 1006.4 |
| 20260505230109 | 16 | 288 | 4.8 | 19.3 | 0.03 | 1.04 | 1.04 | 94 | 1005.9 |
| 20260505225859 | 16 | 288 | 4.8 | 19.3 | 0.03 | 1.04 | 1.04 | 94 | 1006.5 |
| 20260505225339 | 16 | 290 | 6.4 | 14.5 | 0.03 | 1.04 | 1.04 | 94 | 1006.6 |
| 20260505224543 | 16 | 290 | 4.8 | 14.5 | 0.03 | 1.04 | 1.04 | 94 | 1006.7 |
| 20260505224526 | 16 | 290 | 6.4 | 14.5 | 0.03 | 1.04 | 1.04 | 94 | 1006.1 |
| 20260505224015 | 16 | 290 | 3.2 | 12.9 | 0.05 | 1.04 | 1.04 | 94 | 1006.7 |
| 20260505223451 | 16 | 289 | 3.2 | 14.5 | 0.05 | 1.04 | 1.04 | 94 | 1006.8 |
| 20260505223100 | 16 | 290 | 1.6 | 14.5 | 0.08 | 1.04 | 1.04 | 94 | 1006.3 |
| 20260505222924 | 16 | 289 | 4.8 | 14.5 | 0.08 | 1.04 | 1.04 | 94 | 1006.8 |
| 20260505222419 | 16 | 289 | 6.4 | 17.7 | 0.08 | 1.04 | 1.04 | 94 | 1006.8 |
| 20260505221919 | 16 | 288 | 6.4 | 17.7 | 0.10 | 1.04 | 1.04 | 94 | 1006.9 |
| 20260505221545 | 16 | 288 | 6.4 | 17.7 | 0.10 | 1.04 | 1.04 | 94 | 1006.4 |
| 20260505221353 | 16 | 289 | 6.4 | 16.1 | 0.10 | 1.04 | 1.04 | 94 | 1007.0 |
| 20260505220828 | 16 | 290 | 6.4 | 14.5 | 0.08 | 1.02 | 1.02 | 94 | 1007.1 |
| 20260505220259 | 16 | 290 | 4.8 | 14.5 | 0.08 | 1.02 | 1.02 | 94 | 1007.1 |
| 20260505220039 | 16 | 290 | 4.8 | 14.5 | 0.08 | 1.02 | 1.02 | 94 | 1006.6 |
| 20260505215733 | 16 | 292 | 4.8 | 14.5 | 0.08 | 1.02 | 1.02 | 94 | 1007.2 |
| 20260505215210 | 16 | 293 | 4.8 | 14.5 | 0.08 | 1.02 | 1.02 | 94 | 1007.2 |
| 20260505214642 | 16 | 290 | 6.4 | 16.1 | 0.08 | 1.02 | 1.02 | 94 | 1007.2 |
| 20260505214507 | 16 | 292 | 4.8 | 16.1 | 0.08 | 1.02 | 1.02 | 94 | 1006.6 |
| 20260505214115 | 16 | 291 | 6.4 | 16.1 | 0.05 | 0.99 | 0.99 | 94 | 1007.2 |
| 20260505213549 | 16 | 288 | 4.8 | 12.9 | 0.05 | 0.99 | 0.99 | 94 | 1007.2 |
| 20260505213022 | 16 | 288 | 6.4 | 19.3 | 0.05 | 0.97 | 0.97 | 94 | 1007.2 |
| 20260505213008 | 16 | 288 | 1.6 | 19.3 | 0.05 | 0.97 | 0.97 | 94 | 1006.7 |
| 20260505212507 | 16 | 288 | 6.4 | 19.3 | 0.05 | 0.97 | 0.97 | 94 | 1007.2 |
| 20260505211949 | 16 | 286 | 4.8 | 14.5 | 0.03 | 0.94 | 0.97 | 94 | 1007.2 |
| 20260505211532 | 16 | 286 | 6.4 | 14.5 | 0.03 | 0.94 | 0.94 | 94 | 1006.6 |
| 20260505211453 | 16 | 286 | 4.8 | 14.5 | 0.03 | 0.94 | 0.94 | 94 | 1007.3 |
| 20260505210925 | 16 | 288 | 4.8 | 14.5 | 0.03 | 0.94 | 0.94 | 94 | 1007.3 |
| 20260505210356 | 16 | 286 | 4.8 | 14.5 | 0.05 | 0.94 | 0.94 | 94 | 1007.3 |
| 20260505210044 | 16 | 286 | 3.2 | 16.1 | 0.05 | 0.94 | 0.94 | 94 | 1006.7 |
| 20260505205856 | 16 | 287 | 4.8 | 16.1 | 0.08 | 0.94 | 0.94 | 94 | 1007.3 |
| 20260505205329 | 16 | 287 | 6.4 | 14.5 | 0.08 | 0.94 | 0.94 | 94 | 1007.2 |
| 20260505204803 | 16 | 286 | 6.4 | 17.7 | 0.10 | 0.94 | 0.94 | 93 | 1007.2 |
| 20260505204512 | 16 | 286 | 8.0 | 17.7 | 0.10 | 0.94 | 0.94 | 93 | 1006.7 |
| 20260505204235 | 16 | 287 | 3.2 | 12.9 | 0.13 | 0.94 | 0.94 | 93 | 1007.3 |
| 20260505203735 | 16 | 290 | 3.2 | 12.9 | 0.15 | 0.94 | 0.94 | 93 | 1007.3 |
| 20260505203207 | 16 | 273 | 3.2 | 12.9 | 0.28 | 0.91 | 0.91 | 93 | 1007.3 |
| 20260505203100 | 16 | 291 | 1.6 | 12.9 | 0.30 | 0.91 | 0.91 | 93 | 1006.8 |
| 20260505202908 | 16 | 290 | 4.8 | 14.5 | 0.46 | 0.91 | 0.91 | 93 | 1007.3 |
| 20260505202115 | 16 | 290 | 3.2 | 14.5 | 0.51 | 0.91 | 0.91 | 93 | 1007.3 |
| 20260505201550 | 16 | 291 | 3.2 | 6.4 | 0.56 | 0.91 | 0.91 | 93 | 1007.4 |
| 20260505201519 | 16 | 273 | 3.2 | 6.4 | 0.56 | 0.91 | 0.91 | 93 | 1006.8 |
| 20260505201247 | 16 | 290 | 3.2 | 8.0 | 0.56 | 0.91 | 0.91 | 93 | 1007.4 |
| 20260505200454 | 16 | 290 | 3.2 | 9.7 | 0.53 | 0.89 | 0.89 | 92 | 1007.5 |
| 20260505200039 | 16 | 273 | 3.2 | 14.5 | 0.53 | 0.89 | 0.89 | 92 | 1006.8 |
| 20260505195953 | 16 | 291 | 3.2 | 14.5 | 0.51 | 0.86 | 0.89 | 92 | 1007.5 |
| 20260505195448 | 16 | 288 | 3.2 | 14.5 | 0.51 | 0.86 | 0.86 | 91 | 1007.5 |
| 20260505195209 | 16 | 288 | 3.2 | 14.5 | 0.48 | 0.84 | 0.84 | 91 | 1007.7 |
| 20260505194548 | 16 | 288 | 4.8 | 16.1 | 0.48 | 0.84 | 0.84 | 91 | 1007.2 |
| 20260505194421 | 16 | 288 | 6.4 | 25.7 | 0.46 | 0.81 | 0.81 | 90 | 1007.8 |
| 20260505193917 | 16 | 290 | 9.7 | 25.7 | 0.43 | 0.79 | 0.81 | 89 | 1007.9 |
| 20260505193352 | 17 | 290 | 8.0 | 22.5 | 0.33 | 0.69 | 0.69 | 87 | 1008.1 |
| 20260505193106 | 17 | 289 | 6.4 | 22.5 | 0.25 | 0.61 | 0.61 | 85 | 1007.4 |
| 20260505192822 | 17 | 273 | 9.7 | 24.1 | 0.15 | 0.51 | 0.51 | 83 | 1007.9 |
| 20260505192323 | 18 | 287 | 8.0 | 24.1 | 0.08 | 0.43 | 0.43 | 79 | 1007.7 |
| 20260505191755 | 19 | 287 | 6.4 | 20.9 | 0.00 | 0.36 | 0.36 | 74 | 1007.6 |
| 20260505191522 | 19 | 213 | 3.2 | 19.3 | 0.00 | 0.36 | 0.36 | 72 | 1006.8 |
| 20260505191253 | 19 | 95 | 6.4 | 20.9 | 0.00 | 0.36 | 0.36 | 71 | 1007.2 |
| 20260505191011 | 20 | 75 | 6.4 | 16.1 | 0.00 | 0.36 | 0.36 | 71 | 1007.2 |
| 20260505190245 | 20 | 158 | 8.0 | 19.3 | 0.00 | 0.36 | 0.36 | 70 | 1007.4 |
| 20260505190046 | 19 | 172 | 4.8 | 19.3 | 0.00 | 0.36 | 0.36 | 70 | 1006.7 |
| 20260505185744 | 20 | 145 | 9.7 | 19.3 | 0.00 | 0.36 | 0.36 | 70 | 1007.4 |
| 20260505185214 | 20 | 123 | 9.7 | 17.7 | 0.00 | 0.36 | 0.36 | 70 | 1007.4 |
| 20260505184714 | 20 | 121 | 8.0 | 19.3 | 0.00 | 0.36 | 0.36 | 69 | 1007.4 |
| 20260505184533 | 19 | 84 | 8.0 | 19.3 | 0.00 | 0.36 | 0.36 | 70 | 1006.9 |
| 20260505184148 | 20 | 100 | 8.0 | 17.7 | 0.00 | 0.36 | 0.36 | 69 | 1007.6 |
| 20260505184106 | 19 | 82 | 8.0 | 20.9 | 0.00 | 0.36 | 0.36 | 69 | 1007.5 |
| 20260505183117 | 19 | 156 | 9.7 | 20.9 | 0.00 | 0.36 | 0.36 | 69 | 1007.6 |
| 20260505183047 | 19 | 155 | 8.0 | 14.5 | 0.00 | 0.36 | 0.36 | 69 | 1007.0 |
| 20260505182551 | 19 | 114 | 9.7 | 20.9 | 0.00 | 0.36 | 0.36 | 69 | 1007.7 |
| 20260505182245 | 19 | 151 | 9.7 | 25.7 | 0.00 | 0.36 | 0.36 | 69 | 1007.7 |
| 20260505181521 | 19 | 100 | 9.7 | 25.7 | 0.00 | 0.36 | 0.36 | 69 | 1007.3 |
| 20260505181458 | 19 | 123 | 9.7 | 30.6 | 0.00 | 0.36 | 0.36 | 69 | 1007.8 |
| 20260505180956 | 19 | 123 | 9.7 | 30.6 | 0.00 | 0.36 | 0.36 | 69 | 1007.9 |
| 20260505180427 | 19 | 73 | 8.0 | 17.7 | 0.00 | 0.36 | 0.36 | 68 | 1008.0 |
| 20260505180005 | 19 | 109 | 6.4 | 17.7 | 0.00 | 0.36 | 0.36 | 69 | 1007.4 |
| 20260505175927 | 19 | 97 | 8.0 | 17.7 | 0.00 | 0.36 | 0.36 | 69 | 1008.0 |
| 20260505175357 | 19 | 120 | 8.0 | 24.1 | 0.00 | 0.36 | 0.36 | 69 | 1008.0 |
| 20260505174834 | 19 | 132 | 8.0 | 16.1 | 0.00 | 0.36 | 0.36 | 69 | 1008.1 |
| 20260505174541 | 18 | 138 | 4.8 | 16.1 | 0.00 | 0.36 | 0.36 | 68 | 1007.6 |
| 20260505174303 | 19 | 127 | 9.7 | 19.3 | 0.00 | 0.36 | 0.36 | 69 | 1008.1 |
| 20260505173803 | 19 | 134 | 8.0 | 17.7 | 0.00 | 0.36 | 0.36 | 69 | 1008.2 |
| 20260505173511 | 18 | 122 | 6.4 | 19.3 | 0.00 | 0.36 | 0.36 | 69 | 1008.2 |
| 20260505173012 | 18 | 157 | 4.8 | 25.7 | 0.00 | 0.36 | 0.36 | 69 | 1007.7 |
| 20260505172747 | 18 | 115 | 6.4 | 25.7 | 0.00 | 0.36 | 0.36 | 70 | 1008.3 |
| 20260505172248 | 18 | 148 | 8.0 | 25.7 | 0.00 | 0.36 | 0.36 | 68 | 1008.3 |
| 20260505171723 | 18 | 99 | 6.4 | 16.1 | 0.00 | 0.36 | 0.36 | 68 | 1008.3 |
| 20260505171519 | 18 | 128 | 8.0 | 16.1 | 0.00 | 0.36 | 0.36 | 69 | 1007.7 |
| 20260505171225 | 18 | 121 | 6.4 | 17.7 | 0.00 | 0.36 | 0.36 | 69 | 1008.3 |
| 20260505170708 | 18 | 326 | 6.4 | 17.7 | 0.00 | 0.36 | 0.36 | 68 | 1008.4 |
| 20260505170218 | 18 | 292 | 8.0 | 22.5 | 0.00 | 0.36 | 0.36 | 68 | 1008.4 |
| 20260505170033 | 18 | 288 | 6.4 | 22.5 | 0.00 | 0.36 | 0.36 | 68 | 1007.8 |
| 20260505165641 | 18 | 289 | 9.7 | 22.5 | 0.00 | 0.36 | 0.36 | 68 | 1008.5 |
| 20260505165111 | 18 | 292 | 9.7 | 22.5 | 0.00 | 0.36 | 0.36 | 68 | 1008.4 |
| 20260505164545 | 18 | 296 | 8.0 | 22.5 | 0.00 | 0.36 | 0.36 | 69 | 1008.4 |
| 20260505164530 | 18 | 295 | 9.7 | 22.5 | 0.00 | 0.36 | 0.36 | 69 | 1007.8 |
| 20260505164040 | 18 | 312 | 8.0 | 20.9 | 0.00 | 0.36 | 0.36 | 68 | 1008.3 |
| 20260505163539 | 18 | 299 | 8.0 | 17.7 | 0.00 | 0.36 | 0.36 | 69 | 1008.4 |
| 20260505163030 | 18 | 114 | 8.0 | 17.7 | 0.00 | 0.36 | 0.36 | 69 | 1007.8 |
| 20260505163011 | 18 | 111 | 8.0 | 17.7 | 0.00 | 0.36 | 0.36 | 69 | 1008.4 |
| 20260505162512 | 18 | 308 | 8.0 | 19.3 | 0.00 | 0.36 | 0.36 | 70 | 1008.4 |
| 20260505161941 | 18 | 295 | 9.7 | 24.1 | 0.00 | 0.36 | 0.36 | 69 | 1008.4 |
| 20260505161535 | 18 | 285 | 11.3 | 24.1 | 0.00 | 0.36 | 0.36 | 70 | 1007.8 |
| 20260505161439 | 18 | 286 | 9.7 | 24.1 | 0.00 | 0.36 | 0.36 | 70 | 1008.3 |
| 20260505160915 | 18 | 286 | 9.7 | 17.7 | 0.00 | 0.36 | 0.36 | 70 | 1008.4 |
| 20260505160347 | 18 | 286 | 8.0 | 20.9 | 0.00 | 0.36 | 0.36 | 70 | 1008.3 |
| 20260505153242 | 18 | 120 | 8.0 | 19.3 | 0.00 | 0.36 | 0.36 | 73 | 1008.2 |
| 20260505153101 | 18 | 136 | 8.0 | 19.3 | 0.00 | 0.36 | 0.36 | 71 | 1007.6 |
| 20260505152730 | 18 | 134 | 8.0 | 19.3 | 0.00 | 0.36 | 0.36 | 73 | 1008.2 |
| 20260505152231 | 18 | 111 | 9.7 | 19.3 | 0.00 | 0.36 | 0.36 | 73 | 1008.2 |
| 20260505151705 | 18 | 128 | 8.0 | 19.3 | 0.00 | 0.36 | 0.36 | 75 | 1008.1 |
| 20260505151504 | 18 | 103 | 6.4 | 17.7 | 0.00 | 0.36 | 0.36 | 75 | 1007.6 |
| 20260505151204 | 18 | 91 | 9.7 | 20.9 | 0.00 | 0.36 | 0.36 | 76 | 1008.2 |
| 20260505150708 | 18 | 143 | 8.0 | 20.9 | 0.00 | 0.36 | 0.36 | 76 | 1008.2 |
| 20260505150148 | 18 | 75 | 8.0 | 19.3 | 0.00 | 0.36 | 0.36 | 79 | 1008.3 |
| 20260505140452 | 16 | 156 | 4.8 | 16.1 | 0.00 | 0.36 | 0.36 | 91 | 1007.9 |
| 20260505124817 | 14 | 273 | 6.4 | 19.3 | 0.00 | 0.36 | 0.36 | 94 | 1007.5 |
| 20260505124608 | 14 | 290 | 6.4 | 19.3 | 0.00 | 0.36 | 0.36 | 94 | 1006.8 |
| 20260505124314 | 15 | 273 | 4.8 | 9.7 | 0.00 | 0.36 | 0.36 | 94 | 1007.5 |
| 20260505123747 | 14 | 273 | 4.8 | 14.5 | 0.03 | 0.36 | 0.36 | 94 | 1007.7 |
| 20260505123225 | 14 | 273 | 4.8 | 14.5 | 0.03 | 0.36 | 0.36 | 94 | 1007.9 |
| 20260505123045 | 14 | 273 | 3.2 | 9.7 | 0.03 | 0.36 | 0.36 | 94 | 1007.5 |
| 20260505122705 | 14 | 288 | 4.8 | 11.3 | 0.05 | 0.36 | 0.36 | 94 | 1008.1 |
| 20260505122207 | 14 | 286 | 4.8 | 12.9 | 0.05 | 0.36 | 0.36 | 94 | 1007.9 |
| 20260505121653 | 14 | 287 | 4.8 | 14.5 | 0.05 | 0.36 | 0.36 | 94 | 1008.0 |
| 20260505121527 | 14 | 288 | 1.6 | 14.5 | 0.05 | 0.36 | 0.36 | 94 | 1007.5 |
| 20260505121417 | 14 | 273 | 4.8 | 14.5 | 0.05 | 0.36 | 0.36 | 94 | 1008.2 |
| 20260505120657 | 14 | 273 | 3.2 | 14.5 | 0.05 | 0.36 | 0.36 | 94 | 1008.2 |
| 20260505120142 | 14 | 273 | 4.8 | 14.5 | 0.05 | 0.36 | 0.36 | 94 | 1008.2 |
| 20260505120125 | 14 | 289 | 4.8 | 14.5 | 0.05 | 0.36 | 0.36 | 94 | 1008.2 |
| 20260505120041 | 13 | 273 | 3.2 | 14.5 | 0.05 | 0.36 | 0.36 | 94 | 1007.7 |
| 20260505115137 | 14 | 291 | 4.8 | 14.5 | 0.05 | 0.36 | 0.36 | 94 | 1008.2 |
| 20260505114638 | 14 | 288 | 3.2 | 14.5 | 0.05 | 0.36 | 0.36 | 94 | 1008.1 |
| 20260505114507 | 13 | 288 | 4.8 | 14.5 | 0.05 | 0.36 | 0.36 | 94 | 1007.6 |